Deer Park, WA
on Monday, November 19, 2012

Monday
Previous Day Next Day
Daily Summary
 ActualAverageRecord
Temperature
Mean Temperature °F 33°F  
Max Temperature 49°F 40°F 54°F (2003)
Min Temperature 38°F 26°F 11°F (2011)
Degree Days
Heating Degree Days 21 32  
Month to date heating degree days 506 557  
Since 1 July heating degree days 1418 1625  
Cooling Degree Days 0 0  
Month to date cooling degree days 0 0  
Year to date cooling degree days 232 187  
Moisture
Dew Point 40°F   
Average Humidity 90    
Maximum Humidity 100    
Minimum Humidity 80    
Precipitation
Precipitation 1.15 in 0.12 in 1.15 in (2012)
Month to date precipitation 2.54 2.02  
Year to date precipitation 22.54 18.08  
Wind
Wind Speed 10 mph   
Max Wind Speed 20 mph   
Max Gust Speed 26 mph   
Visibility 8 miles   
Events Rain   

Key: T is trace of precipitation, MM is missing value
Source: NWS Daily Summary
Time(PST)TemperatureDew PointHumidity Pressure Visibility Wind DirectionWind SpeedGust SpeedPrecipitationEvents Conditions
12:14 AM 41.0°F 35.6°F 81% 29.85 in 8.0 miles South 16.1 mph 23.0 mph 0.01 in Rain Light Rain
12:53 AM 39.9°F 36.0°F 86% 29.86 in 10.0 miles SSE 8.1 mph - 0.04 in Rain Light Rain
1:53 AM 39.0°F 37.0°F 93% 29.84 in 10.0 miles ENE 5.8 mph - 0.02 in Rain Light Rain
2:25 AM 39.2°F 37.4°F 93% 29.84 in 4.0 miles Calm Calm - 0.04 in Rain Rain
2:53 AM 39.0°F 37.0°F 93% 29.88 in 4.0 miles SSE 3.5 mph - 0.12 in Rain Rain
3:53 AM 39.9°F 37.9°F 93% 29.86 in 6.0 miles ESE 8.1 mph - 0.10 in Rain Rain
4:40 AM 39.2°F 39.2°F 100% 29.81 in 4.0 miles SE 10.4 mph - 0.10 in Rain Rain
4:53 AM 39.9°F 37.9°F 93% 29.84 in 5.0 miles ESE 10.4 mph - 0.13 in Rain Rain
5:08 AM 39.2°F 37.4°F 93% 29.81 in 4.0 miles ESE 9.2 mph - 0.03 in Rain Rain
5:35 AM 39.2°F 37.4°F 93% 29.81 in 5.0 miles SE 16.1 mph 20.7 mph 0.08 in Rain Rain
5:42 AM 39.2°F 37.4°F 93% 29.80 in 5.0 miles SE 10.4 mph 19.6 mph 0.10 in Rain Rain
5:53 AM 39.9°F 39.0°F 97% 29.84 in 5.0 miles ESE 10.4 mph - 0.12 in Rain Rain
6:16 AM 39.2°F 39.2°F 100% 29.81 in 6.0 miles ESE 8.1 mph - 0.05 in Rain Rain
6:23 AM 39.2°F 39.2°F 100% 29.80 in 6.0 miles SE 9.2 mph - 0.07 in Rain Rain
6:53 AM 39.9°F 37.9°F 93% 29.84 in 7.0 miles SE 11.5 mph - 0.11 in Rain Rain
7:36 AM 39.2°F 39.2°F 100% 29.81 in 8.0 miles SE 11.5 mph - 0.05 in Rain Rain
7:53 AM 39.9°F 39.0°F 97% 29.85 in 8.0 miles SE 10.4 mph - 0.07 in Rain Rain
8:21 AM 41.0°F 39.2°F 93% 29.81 in 9.0 miles SE 9.2 mph - 0.02 in Rain Light Rain
8:35 AM 41.0°F 39.2°F 93% 29.81 in 10.0 miles SE 5.8 mph - 0.03 in Rain Light Rain
8:53 AM 41.0°F 39.9°F 96% 29.83 in 9.0 miles ESE 4.6 mph - 0.04 in Rain Light Rain
9:00 AM 41.0°F 39.2°F 93% 29.80 in 10.0 miles ESE 4.6 mph - 0.01 in Rain Light Rain
9:53 AM 42.1°F 39.9°F 92% 29.83 in 10.0 miles East 3.5 mph - 0.04 in Rain Light Rain
10:53 AM 43.0°F 39.9°F 89% 29.81 in 10.0 miles SE 8.1 mph - 0.02 in Rain Light Rain
11:53 AM 44.1°F 41.0°F 89% 29.77 in 10.0 miles SE 11.5 mph - 0.01 in   Overcast
12:53 PM 45.0°F 42.1°F 90% 29.74 in 10.0 miles SE 13.8 mph - 0.00 in Rain Light Rain
1:53 PM 46.9°F 41.0°F 80% 29.71 in 10.0 miles SSE 16.1 mph 24.2 mph 0.01 in   Overcast
2:53 PM 46.9°F 42.1°F 83% 29.71 in 10.0 miles SSE 15.0 mph - 0.02 in Rain Light Rain
3:53 PM 46.0°F 43.0°F 89% 29.71 in 10.0 miles SSE 9.2 mph - 0.03 in Rain Light Rain
4:53 PM 46.9°F 43.0°F 86% 29.70 in 10.0 miles SSE 12.7 mph - 0.02 in   Overcast
5:53 PM 48.0°F 43.0°F 83% 29.69 in 10.0 miles South 12.7 mph - N/A   Overcast
6:53 PM 48.9°F 42.1°F 77% 29.70 in 10.0 miles South 15.0 mph - N/A   Overcast
7:53 PM 48.0°F 43.0°F 83% 29.72 in 10.0 miles South 17.3 mph 26.5 mph 0.01 in Rain Light Rain
8:18 PM 46.4°F 44.6°F 93% 29.71 in 9.0 miles South 10.4 mph - 0.02 in Rain Light Rain
8:50 PM 46.4°F 44.6°F 93% 29.71 in 10.0 miles SSE 11.5 mph - 0.04 in Rain Light Rain
8:53 PM 46.9°F 44.1°F 90% 29.73 in 10.0 miles South 12.7 mph - 0.04 in Rain Light Rain
9:53 PM 46.0°F 45.0°F 96% 29.76 in 7.0 miles South 9.2 mph - 0.07 in Rain Rain
10:53 PM 46.0°F 45.0°F 96% 29.77 in 6.0 miles South 11.5 mph - 0.07 in Rain Rain
11:01 PM 46.4°F 44.6°F 93% 29.75 in 6.0 miles South 11.5 mph - 0.01 in Rain Rain
11:17 PM 46.4°F 44.6°F 93% 29.76 in 7.0 miles South 11.5 mph - 0.03 in Rain Light Rain
11:53 PM 46.0°F 44.1°F 93% 29.77 in 10.0 miles South 9.2 mph - 0.06 in Rain Light Rain
Moon Phase
Nov. 19 Nov. 20 Nov. 28 Dec. 06 Dec. 13
Sunrise:07:02 AM (PST) Moon Rise:11:57 AM (PST)11/19
Sunset:04:07 PM (PST) Moon Set:10:52 PM (PST)11/19

Copyright © 2014 The Weather Underground, Inc.